Location: Unspecified
(0.0000°N, 0.0000°E)
Time: 20:21:18
(UTC+02:00)

IUS-9 SRM-1 - Visible Passes

Search period start: 30 May 2016 00:00
Search period end: 09 June 2016 00:00
Orbit: 244 x 20122 km, 26.5° (Epoch: 29 May)

Date Brightness Start Highest point End Pass type
(mag) Time Alt. Az. Time Alt. Az. Time Alt. Az.
30 May 8.7 05:56:05 30° WSW 09:19:51 52° NW 09:48:29 10° NE visible
30 May 7.1 22:08:20 10° SW 22:22:16 36° SSE 02:14:35 10° E visible
31 May 8.9 05:30:33 37° WSW 08:45:05 57° NW 09:20:57 10° NE visible
31 May 6.9 21:40:50 10° SW 21:52:08 33° SSE 01:14:10 10° E visible
01 Jun 9.1 05:04:53 44° WSW 08:06:53 63° NW 08:53:13 10° NE visible
01 Jun 6.7 21:13:19 10° SW 21:22:30 30° SSE 21:39:35 22° SE visible
02 Jun 8.7 04:39:05 51° SW 07:22:52 69° NW 08:25:13 10° NE visible
02 Jun 6.4 20:45:45 10° SW 20:53:12 28° S 21:13:36 16° SE visible
03 Jun 8.5 04:13:07 58° SW 06:32:18 75° WNW 07:56:56 10° NE visible
03 Jun 6.1 20:18:05 10° SW 20:24:09 26° S 20:47:32 10° ESE visible
04 Jun 8.4 02:37:45 10° SW 05:43:49 82° WNW 07:28:21 10° NE visible
04 Jun 5.8 19:50:22 10° SW 19:55:17 24° S 20:11:05 10° SE visible
05 Jun 8.3 02:08:05 10° SW 05:00:27 90° WNW 06:59:24 10° NE visible
06 Jun 8.2 01:38:41 10° SW 04:19:37 83° ESE 06:30:02 10° NE visible
07 Jun 8.1 01:09:28 10° SW 03:39:32 75° ESE 06:00:11 10° ENE visible
08 Jun 7.9 00:40:25 10° SW 02:58:29 68° ESE 05:29:44 10° ENE visible
